contact:dominique.lefevre@mio.osupytheas.fr, maurice.libes@osupytheas.fr, didier.mallarino@osupytheas.fr
Project:EMSO http://www.emso-fr.org/EMSO-France
Depth: 2436.0 m
Title:EMSO Ligure Ouest : Data MII capteur MICROCAT
DateTime_Computer,Latitude,Longitude,Temperature,Conductivity,Pressure,DateTime_Instrument
DateTime_Computer,Latitude,Longitude,degC,S m-1,dbar,DateTime_Instrument
2021-12-18T00:03:01Z,42.805,6.029,13.3012,4.60038,2470.227,2021-12-18T02:04:30Z
2021-12-18T00:06:04Z,42.805,6.029,13.3006,4.60027,2470.227,2021-12-18T02:07:33Z
2021-12-18T00:09:07Z,42.805,6.029,13.3007,4.60026,2470.203,2021-12-18T02:10:36Z
2021-12-18T00:12:10Z,42.805,6.029,13.3006,4.60029,2470.203,2021-12-18T02:13:39Z
2021-12-18T00:15:13Z,42.805,6.029,13.3009,4.60028,2470.227,2021-12-18T02:16:42Z
2021-12-18T00:18:17Z,42.805,6.029,13.3014,4.60032,2470.217,2021-12-18T02:19:45Z
2021-12-18T00:21:20Z,42.805,6.029,13.3014,4.60029,2470.203,2021-12-18T02:22:48Z
2021-12-18T00:24:23Z,42.805,6.029,13.3011,4.60046,2470.203,2021-12-18T02:25:51Z
2021-12-18T00:27:26Z,42.805,6.029,13.3007,4.60034,2470.227,2021-12-18T02:28:55Z
2021-12-18T00:30:29Z,42.805,6.029,13.3010,4.60031,2470.24,2021-12-18T02:31:58Z
2021-12-18T00:33:32Z,42.805,6.029,13.3009,4.60035,2470.25,2021-12-18T02:35:01Z
2021-12-18T00:36:35Z,42.805,6.029,13.3016,4.60031,2470.194,2021-12-18T02:38:04Z
2021-12-18T00:39:38Z,42.805,6.029,13.3011,4.60029,2470.217,2021-12-18T02:41:07Z
2021-12-18T00:42:42Z,42.805,6.029,13.3007,4.60032,2470.203,2021-12-18T02:44:10Z
2021-12-18T00:45:45Z,42.805,6.029,13.3012,4.60035,2470.217,2021-12-18T02:47:13Z
2021-12-18T00:48:48Z,42.805,6.029,13.3014,4.60031,2470.217,2021-12-18T02:50:16Z
2021-12-18T00:51:51Z,42.805,6.029,13.3015,4.60031,2470.203,2021-12-18T02:53:20Z
2021-12-18T00:54:54Z,42.805,6.029,13.3011,4.60031,2470.203,2021-12-18T02:56:23Z
2021-12-18T00:57:57Z,42.805,6.029,13.3007,4.60032,2470.203,2021-12-18T02:59:26Z
2021-12-18T01:01:00Z,42.805,6.029,13.3015,4.60029,2470.203,2021-12-18T03:02:29Z
2021-12-18T01:04:03Z,42.805,6.029,13.3010,4.60033,2470.24,2021-12-18T03:05:32Z
2021-12-18T01:07:06Z,42.805,6.029,13.3010,4.60030,2470.217,2021-12-18T03:08:35Z
2021-12-18T01:10:10Z,42.805,6.029,13.3007,4.60031,2470.18,2021-12-18T03:11:38Z
2021-12-18T01:13:13Z,42.805,6.029,13.3015,4.60039,2470.24,2021-12-18T03:14:41Z
2021-12-18T01:16:16Z,42.805,6.029,13.3015,4.60031,2470.203,2021-12-18T03:17:45Z
2021-12-18T01:19:19Z,42.805,6.029,13.3015,4.60031,2470.217,2021-12-18T03:20:48Z
2021-12-18T01:22:22Z,42.805,6.029,13.3005,4.60029,2470.203,2021-12-18T03:23:51Z
2021-12-18T01:25:25Z,42.805,6.029,13.3009,4.60031,2470.227,2021-12-18T03:26:54Z
2021-12-18T01:28:28Z,42.805,6.029,13.3012,4.60033,2470.217,2021-12-18T03:29:57Z
2021-12-18T01:31:31Z,42.805,6.029,13.3012,4.60029,2470.24,2021-12-18T03:33:00Z
2021-12-18T01:34:35Z,42.805,6.029,13.3020,4.60029,2470.203,2021-12-18T03:36:03Z
2021-12-18T01:37:38Z,42.805,6.029,13.3015,4.60032,2470.203,2021-12-18T03:39:06Z
2021-12-18T01:40:41Z,42.805,6.029,13.3006,4.60029,2470.203,2021-12-18T03:42:10Z
2021-12-18T01:43:44Z,42.805,6.029,13.3009,4.60029,2470.24,2021-12-18T03:45:13Z
2021-12-18T01:46:47Z,42.805,6.029,13.3007,4.60031,2470.217,2021-12-18T03:48:16Z
2021-12-18T01:49:50Z,42.805,6.029,13.3011,4.60026,2470.217,2021-12-18T03:51:19Z
2021-12-18T01:52:53Z,42.805,6.029,13.3009,4.60033,2470.203,2021-12-18T03:54:22Z
2021-12-18T01:55:56Z,42.805,6.029,13.3015,4.60026,2470.203,2021-12-18T03:57:25Z
2021-12-18T01:59:00Z,42.805,6.029,13.3009,4.60036,2470.24,2021-12-18T04:00:28Z
2021-12-18T02:02:03Z,42.805,6.029,13.3009,4.60031,2470.217,2021-12-18T04:03:31Z
2021-12-18T02:05:06Z,42.805,6.029,13.3016,4.60030,2470.203,2021-12-18T04:06:35Z
2021-12-18T02:08:09Z,42.805,6.029,13.3014,4.60029,2470.213,2021-12-18T04:09:38Z
2021-12-18T02:11:12Z,42.805,6.029,13.3010,4.60028,2470.24,2021-12-18T04:12:41Z
2021-12-18T02:14:15Z,42.805,6.029,13.3013,4.60031,2470.203,2021-12-18T04:15:44Z
2021-12-18T02:17:18Z,42.805,6.029,13.3011,4.60029,2470.227,2021-12-18T04:18:47Z
2021-12-18T02:20:21Z,42.805,6.029,13.3015,4.60029,2470.264,2021-12-18T04:21:50Z
2021-12-18T02:23:25Z,42.805,6.029,13.3009,4.60031,2470.227,2021-12-18T04:24:53Z
2021-12-18T02:26:28Z,42.805,6.029,13.3014,4.60031,2470.203,2021-12-18T04:27:56Z
2021-12-18T02:29:31Z,42.805,6.029,13.3017,4.60028,2470.264,2021-12-18T04:31:00Z
2021-12-18T02:32:34Z,42.805,6.029,13.3011,4.60029,2470.24,2021-12-18T04:34:03Z
2021-12-18T02:35:37Z,42.805,6.029,13.3007,4.60028,2470.25,2021-12-18T04:37:06Z
2021-12-18T02:38:40Z,42.805,6.029,13.3009,4.60026,2470.25,2021-12-18T04:40:09Z
2021-12-18T02:41:43Z,42.805,6.029,13.3011,4.60033,2470.24,2021-12-18T04:43:12Z
2021-12-18T02:44:46Z,42.805,6.029,13.3009,4.60031,2470.227,2021-12-18T04:46:15Z
2021-12-18T02:47:50Z,42.805,6.029,13.3009,4.60026,2470.25,2021-12-18T04:49:18Z
2021-12-18T02:50:53Z,42.805,6.029,13.3005,4.60029,2470.227,2021-12-18T04:52:21Z
2021-12-18T02:53:56Z,42.805,6.029,13.3008,4.60025,2470.227,2021-12-18T04:55:24Z
2021-12-18T02:56:59Z,42.805,6.029,13.3011,4.60031,2470.227,2021-12-18T04:58:28Z
2021-12-18T03:00:02Z,42.805,6.029,13.3014,4.60033,2470.227,2021-12-18T05:01:31Z
2021-12-18T03:03:05Z,42.805,6.029,13.3008,4.60036,2470.203,2021-12-18T05:04:34Z
2021-12-18T03:06:08Z,42.805,6.029,13.3006,4.60029,2470.273,2021-12-18T05:07:37Z
2021-12-18T03:09:11Z,42.805,6.029,13.3017,4.60026,2470.273,2021-12-18T05:10:40Z
2021-12-18T03:12:15Z,42.805,6.029,13.3007,4.60031,2470.287,2021-12-18T05:13:43Z
2021-12-18T03:15:18Z,42.805,6.029,13.3014,4.60032,2470.273,2021-12-18T05:16:46Z
2021-12-18T03:18:21Z,42.805,6.029,13.3011,4.60029,2470.264,2021-12-18T05:19:50Z
2021-12-18T03:21:24Z,42.805,6.029,13.3011,4.60031,2470.287,2021-12-18T05:22:53Z
2021-12-18T03:24:27Z,42.805,6.029,13.3016,4.60030,2470.25,2021-12-18T05:25:56Z
2021-12-18T03:27:30Z,42.805,6.029,13.3014,4.60029,2470.297,2021-12-18T05:28:59Z
2021-12-18T03:30:33Z,42.805,6.029,13.3011,4.60031,2470.273,2021-12-18T05:32:02Z
2021-12-18T03:33:36Z,42.805,6.029,13.3009,4.60031,2470.273,2021-12-18T05:35:05Z
2021-12-18T03:36:40Z,42.805,6.029,13.3011,4.60033,2470.297,2021-12-18T05:38:08Z
2021-12-18T03:39:43Z,42.805,6.029,13.3015,4.60029,2470.287,2021-12-18T05:41:11Z
2021-12-18T03:42:46Z,42.805,6.029,13.3015,4.60031,2470.297,2021-12-18T05:44:14Z
2021-12-18T03:45:49Z,42.805,6.029,13.3017,4.60033,2470.264,2021-12-18T05:47:18Z
2021-12-18T03:48:52Z,42.805,6.029,13.3014,4.60031,2470.297,2021-12-18T05:50:21Z
2021-12-18T03:51:55Z,42.805,6.029,13.3013,4.60032,2470.297,2021-12-18T05:53:24Z
2021-12-18T03:54:58Z,42.805,6.029,13.3008,4.60036,2470.31,2021-12-18T05:56:27Z
2021-12-18T03:58:01Z,42.805,6.029,13.3016,4.60033,2470.334,2021-12-18T05:59:30Z
2021-12-18T04:01:05Z,42.805,6.029,13.3016,4.60033,2470.31,2021-12-18T06:02:33Z
2021-12-18T04:04:08Z,42.805,6.029,13.3019,4.60032,2470.31,2021-12-18T06:05:36Z
2021-12-18T04:07:11Z,42.805,6.029,13.3007,4.60031,2470.283,2021-12-18T06:08:39Z
2021-12-18T04:10:14Z,42.805,6.029,13.3021,4.60033,2470.297,2021-12-18T06:11:43Z
2021-12-18T04:13:17Z,42.805,6.029,13.3009,4.60030,2470.297,2021-12-18T06:14:46Z
2021-12-18T04:16:20Z,42.805,6.029,13.3021,4.60029,2470.324,2021-12-18T06:17:49Z
2021-12-18T04:19:23Z,42.805,6.029,13.3009,4.60036,2470.32,2021-12-18T06:20:52Z
2021-12-18T04:22:26Z,42.805,6.029,13.3020,4.60036,2470.297,2021-12-18T06:23:55Z
2021-12-18T04:25:30Z,42.805,6.029,13.3014,4.60034,2470.357,2021-12-18T06:26:58Z
2021-12-18T04:28:33Z,42.805,6.029,13.3016,4.60033,2470.334,2021-12-18T06:30:01Z
2021-12-18T04:31:36Z,42.805,6.029,13.3013,4.60033,2470.343,2021-12-18T06:33:04Z
2021-12-18T04:34:39Z,42.805,6.029,13.3012,4.60029,2470.334,2021-12-18T06:36:08Z
2021-12-18T04:37:42Z,42.805,6.029,13.3023,4.60044,2470.357,2021-12-18T06:39:11Z
2021-12-18T04:40:45Z,42.805,6.029,13.3015,4.60034,2470.357,2021-12-18T06:42:14Z
2021-12-18T04:43:48Z,42.805,6.029,13.3019,4.60036,2470.343,2021-12-18T06:45:17Z
2021-12-18T04:46:51Z,42.805,6.029,13.3015,4.60035,2470.343,2021-12-18T06:48:20Z
2021-12-18T04:49:54Z,42.805,6.029,13.3015,4.60035,2470.32,2021-12-18T06:51:23Z
2021-12-18T04:52:58Z,42.805,6.029,13.3013,4.60038,2470.343,2021-12-18T06:54:26Z
2021-12-18T04:56:01Z,42.805,6.029,13.3010,4.60033,2470.357,2021-12-18T06:57:29Z
2021-12-18T04:59:04Z,42.805,6.029,13.3009,4.60039,2470.357,2021-12-18T07:00:33Z
2021-12-18T05:02:07Z,42.805,6.029,13.3014,4.60029,2470.366,2021-12-18T07:03:36Z
2021-12-18T05:05:10Z,42.805,6.029,13.3013,4.60033,2470.343,2021-12-18T07:06:39Z
2021-12-18T05:08:13Z,42.805,6.029,13.3014,4.60032,2470.38,2021-12-18T07:09:42Z
2021-12-18T05:11:16Z,42.805,6.029,13.3014,4.60033,2470.343,2021-12-18T07:12:45Z
2021-12-18T05:14:19Z,42.805,6.029,13.3014,4.60033,2470.366,2021-12-18T07:15:48Z
2021-12-18T05:17:23Z,42.805,6.029,13.3010,4.60037,2470.366,2021-12-18T07:18:51Z
2021-12-18T05:20:26Z,42.805,6.029,13.3015,4.60033,2470.366,2021-12-18T07:21:54Z
2021-12-18T05:23:29Z,42.805,6.029,13.3011,4.60036,2470.38,2021-12-18T07:24:58Z
2021-12-18T05:26:32Z,42.805,6.029,13.3019,4.60037,2470.39,2021-12-18T07:28:01Z
2021-12-18T05:29:35Z,42.805,6.029,13.3015,4.60032,2470.404,2021-12-18T07:31:04Z
2021-12-18T05:32:38Z,42.805,6.029,13.3014,4.60033,2470.38,2021-12-18T07:34:07Z
2021-12-18T05:35:41Z,42.805,6.029,13.3015,4.60033,2470.39,2021-12-18T07:37:10Z
2021-12-18T05:38:44Z,42.805,6.029,13.3014,4.60036,2470.39,2021-12-18T07:40:13Z
2021-12-18T05:41:48Z,42.805,6.029,13.3015,4.60033,2470.413,2021-12-18T07:43:16Z
2021-12-18T05:44:51Z,42.805,6.029,13.3015,4.60036,2470.39,2021-12-18T07:46:19Z
2021-12-18T05:47:54Z,42.805,6.029,13.3007,4.60031,2470.404,2021-12-18T07:49:23Z
2021-12-18T05:50:57Z,42.805,6.029,13.3012,4.60036,2470.413,2021-12-18T07:52:26Z
2021-12-18T05:54:00Z,42.805,6.029,13.3007,4.60035,2470.413,2021-12-18T07:55:29Z
2021-12-18T05:57:03Z,42.805,6.029,13.3013,4.60025,2470.39,2021-12-18T07:58:32Z
2021-12-18T06:00:06Z,42.805,6.029,13.3015,4.60033,2470.38,2021-12-18T08:01:35Z
2021-12-18T06:03:09Z,42.805,6.029,13.3016,4.60031,2470.413,2021-12-18T08:04:38Z
2021-12-18T06:06:13Z,42.805,6.029,13.3012,4.60034,2470.366,2021-12-18T08:07:41Z
2021-12-18T06:09:16Z,42.805,6.029,13.3012,4.60031,2470.39,2021-12-18T08:10:44Z
2021-12-18T06:12:19Z,42.805,6.029,13.3023,4.60035,2470.427,2021-12-18T08:13:48Z
2021-12-18T06:15:22Z,42.805,6.029,13.3009,4.60037,2470.39,2021-12-18T08:16:51Z
2021-12-18T06:18:25Z,42.805,6.029,13.3011,4.60030,2470.427,2021-12-18T08:19:54Z
2021-12-18T06:21:28Z,42.805,6.029,13.3009,4.60031,2470.404,2021-12-18T08:22:57Z
2021-12-18T06:24:31Z,42.805,6.029,13.3021,4.60036,2470.413,2021-12-18T08:26:00Z
2021-12-18T06:27:34Z,42.805,6.029,13.3018,4.60033,2470.427,2021-12-18T08:29:03Z
2021-12-18T06:30:38Z,42.805,6.029,13.3016,4.60036,2470.404,2021-12-18T08:32:06Z
2021-12-18T06:33:41Z,42.805,6.029,13.3015,4.60041,2470.413,2021-12-18T08:35:09Z
2021-12-18T06:36:44Z,42.805,6.029,13.3020,4.60036,2470.39,2021-12-18T08:38:13Z
2021-12-18T06:39:47Z,42.805,6.029,13.3012,4.60039,2470.38,2021-12-18T08:41:16Z
2021-12-18T06:42:50Z,42.805,6.029,13.3008,4.60034,2470.413,2021-12-18T08:44:19Z
2021-12-18T06:45:53Z,42.805,6.029,13.3009,4.60039,2470.413,2021-12-18T08:47:22Z
2021-12-18T06:48:56Z,42.805,6.029,13.3009,4.60031,2470.413,2021-12-18T08:50:25Z
2021-12-18T06:51:59Z,42.805,6.029,13.3014,4.60030,2470.437,2021-12-18T08:53:28Z
2021-12-18T06:55:03Z,42.805,6.029,13.3010,4.60032,2470.427,2021-12-18T08:56:31Z
2021-12-18T06:58:06Z,42.805,6.029,13.3009,4.60032,2470.404,2021-12-18T08:59:34Z
2021-12-18T07:01:09Z,42.805,6.029,13.3009,4.60030,2470.404,2021-12-18T09:02:38Z
2021-12-18T07:04:12Z,42.805,6.029,13.3009,4.60036,2470.404,2021-12-18T09:05:41Z
2021-12-18T07:07:15Z,42.805,6.029,13.3008,4.60039,2470.413,2021-12-18T09:08:44Z
2021-12-18T07:10:18Z,42.805,6.029,13.3008,4.60031,2470.427,2021-12-18T09:11:47Z
2021-12-18T07:13:21Z,42.805,6.029,13.3014,4.60033,2470.413,2021-12-18T09:14:50Z
2021-12-18T07:16:24Z,42.805,6.029,13.3016,4.60033,2470.413,2021-12-18T09:17:53Z
2021-12-18T07:19:28Z,42.805,6.029,13.3015,4.60028,2470.39,2021-12-18T09:20:56Z
2021-12-18T07:22:31Z,42.805,6.029,13.3009,4.60031,2470.427,2021-12-18T09:23:59Z
2021-12-18T07:25:34Z,42.805,6.029,13.3021,4.60031,2470.413,2021-12-18T09:27:02Z
2021-12-18T07:28:37Z,42.805,6.029,13.3011,4.60033,2470.39,2021-12-18T09:30:06Z
2021-12-18T07:31:40Z,42.805,6.029,13.3009,4.60033,2470.427,2021-12-18T09:33:09Z
2021-12-18T07:34:43Z,42.805,6.029,13.3003,4.60028,2470.39,2021-12-18T09:36:12Z
2021-12-18T07:37:46Z,42.805,6.029,13.3011,4.60032,2470.39,2021-12-18T09:39:15Z
2021-12-18T07:40:49Z,42.805,6.029,13.3004,4.60029,2470.417,2021-12-18T09:42:18Z
2021-12-18T07:43:53Z,42.805,6.029,13.3006,4.60031,2470.404,2021-12-18T09:45:21Z
2021-12-18T07:46:56Z,42.805,6.029,13.3010,4.60029,2470.427,2021-12-18T09:48:24Z
2021-12-18T07:49:59Z,42.805,6.029,13.3009,4.60030,2470.427,2021-12-18T09:51:27Z
2021-12-18T07:53:02Z,42.805,6.029,13.3005,4.60031,2470.404,2021-12-18T09:54:31Z
2021-12-18T07:56:05Z,42.805,6.029,13.3011,4.60034,2470.404,2021-12-18T09:57:34Z
2021-12-18T07:59:08Z,42.805,6.029,13.3014,4.60031,2470.39,2021-12-18T10:00:37Z
2021-12-18T08:02:11Z,42.805,6.029,13.3010,4.60036,2470.427,2021-12-18T10:03:40Z
2021-12-18T08:05:14Z,42.805,6.029,13.3013,4.60026,2470.39,2021-12-18T10:06:43Z
2021-12-18T08:08:18Z,42.805,6.029,13.3007,4.60031,2470.404,2021-12-18T10:09:46Z
2021-12-18T08:11:21Z,42.805,6.029,13.3010,4.60029,2470.413,2021-12-18T10:12:49Z
2021-12-18T08:14:24Z,42.805,6.029,13.3010,4.60036,2470.427,2021-12-18T10:15:52Z
2021-12-18T08:17:27Z,42.805,6.029,13.3011,4.60029,2470.404,2021-12-18T10:18:56Z
2021-12-18T08:20:30Z,42.805,6.029,13.3006,4.60030,2470.39,2021-12-18T10:21:59Z
2021-12-18T08:23:33Z,42.805,6.029,13.3006,4.60036,2470.39,2021-12-18T10:25:02Z
2021-12-18T08:26:36Z,42.805,6.029,13.3015,4.60027,2470.357,2021-12-18T10:28:05Z
2021-12-18T08:29:39Z,42.805,6.029,13.3008,4.60036,2470.39,2021-12-18T10:31:08Z
2021-12-18T08:32:43Z,42.805,6.029,13.3017,4.60036,2470.39,2021-12-18T10:34:11Z
2021-12-18T08:35:46Z,42.805,6.029,13.3008,4.60038,2470.39,2021-12-18T10:37:14Z
2021-12-18T08:38:49Z,42.805,6.029,13.3006,4.60031,2470.39,2021-12-18T10:40:18Z
2021-12-18T08:41:52Z,42.805,6.029,13.3014,4.60031,2470.404,2021-12-18T10:43:21Z
2021-12-18T08:44:55Z,42.805,6.029,13.3001,4.60029,2470.343,2021-12-18T10:46:24Z
2021-12-18T08:47:58Z,42.805,6.029,13.3013,4.60031,2470.39,2021-12-18T10:49:27Z
2021-12-18T08:51:01Z,42.805,6.029,13.3002,4.60029,2470.427,2021-12-18T10:52:30Z
2021-12-18T08:54:04Z,42.805,6.029,13.3006,4.60030,2470.39,2021-12-18T10:55:33Z
2021-12-18T08:57:08Z,42.805,6.029,13.3010,4.60037,2470.39,2021-12-18T10:58:36Z
2021-12-18T09:00:11Z,42.805,6.029,13.3010,4.60028,2470.366,2021-12-18T11:01:39Z
2021-12-18T09:03:14Z,42.805,6.029,13.3011,4.60036,2470.413,2021-12-18T11:04:43Z
2021-12-18T09:06:17Z,42.805,6.029,13.3004,4.60039,2470.366,2021-12-18T11:07:46Z
2021-12-18T09:09:20Z,42.805,6.029,13.3005,4.60029,2470.404,2021-12-18T11:10:49Z
2021-12-18T09:12:23Z,42.805,6.029,13.3009,4.60026,2470.39,2021-12-18T11:13:52Z
2021-12-18T09:15:26Z,42.805,6.029,13.3011,4.60032,2470.357,2021-12-18T11:16:55Z
2021-12-18T09:18:29Z,42.805,6.029,13.3004,4.60028,2470.39,2021-12-18T11:19:58Z
2021-12-18T09:21:33Z,42.805,6.029,13.3007,4.60033,2470.39,2021-12-18T11:23:01Z
2021-12-18T09:24:36Z,42.805,6.029,13.3003,4.60029,2470.366,2021-12-18T11:26:04Z
2021-12-18T09:27:39Z,42.805,6.029,13.3011,4.60031,2470.366,2021-12-18T11:29:08Z
2021-12-18T09:30:42Z,42.805,6.029,13.3011,4.60033,2470.343,2021-12-18T11:32:11Z
2021-12-18T09:33:45Z,42.805,6.029,13.3005,4.60028,2470.38,2021-12-18T11:35:14Z
2021-12-18T09:36:48Z,42.805,6.029,13.3008,4.60028,2470.357,2021-12-18T11:38:17Z
2021-12-18T09:39:51Z,42.805,6.029,13.3010,4.60032,2470.38,2021-12-18T11:41:20Z
2021-12-18T09:42:55Z,42.805,6.029,13.3007,4.60032,2470.39,2021-12-18T11:44:23Z
2021-12-18T09:45:58Z,42.805,6.029,13.3002,4.60023,2470.39,2021-12-18T11:47:26Z
2021-12-18T09:49:01Z,42.805,6.029,13.3008,4.60034,2470.357,2021-12-18T11:50:29Z
2021-12-18T09:52:04Z,42.805,6.029,13.3004,4.60038,2470.38,2021-12-18T11:53:33Z
2021-12-18T09:55:07Z,42.805,6.029,13.3006,4.60028,2470.343,2021-12-18T11:56:36Z
2021-12-18T09:58:10Z,42.805,6.029,13.3002,4.60027,2470.343,2021-12-18T11:59:39Z
2021-12-18T10:01:13Z,42.805,6.029,13.3009,4.60030,2470.366,2021-12-18T12:02:42Z
2021-12-18T10:04:16Z,42.805,6.029,13.3011,4.60029,2470.38,2021-12-18T12:05:45Z
2021-12-18T10:07:20Z,42.805,6.029,13.3007,4.60033,2470.39,2021-12-18T12:08:48Z
2021-12-18T10:10:23Z,42.805,6.029,13.3007,4.60029,2470.357,2021-12-18T12:11:51Z
2021-12-18T10:13:26Z,42.805,6.029,13.3008,4.60030,2470.334,2021-12-18T12:14:54Z
2021-12-18T10:16:29Z,42.805,6.029,13.3011,4.60031,2470.357,2021-12-18T12:17:58Z
2021-12-18T10:19:32Z,42.805,6.029,13.3007,4.60036,2470.334,2021-12-18T12:21:01Z
2021-12-18T10:22:35Z,42.805,6.029,13.3009,4.60029,2470.38,2021-12-18T12:24:04Z
2021-12-18T10:25:38Z,42.805,6.029,13.3006,4.60031,2470.38,2021-12-18T12:27:07Z
2021-12-18T10:28:41Z,42.805,6.029,13.3012,4.60029,2470.366,2021-12-18T12:30:10Z
2021-12-18T10:31:45Z,42.805,6.029,13.3009,4.60030,2470.366,2021-12-18T12:33:13Z
2021-12-18T10:34:48Z,42.805,6.029,13.3008,4.60031,2470.32,2021-12-18T12:36:16Z
2021-12-18T10:37:51Z,42.805,6.029,13.3011,4.60031,2470.366,2021-12-18T12:39:20Z
2021-12-18T10:40:54Z,42.805,6.029,13.3004,4.60026,2470.343,2021-12-18T12:42:23Z
2021-12-18T10:43:57Z,42.805,6.029,13.3011,4.60032,2470.306,2021-12-18T12:45:26Z
2021-12-18T10:47:00Z,42.805,6.029,13.3008,4.60029,2470.32,2021-12-18T12:48:29Z
2021-12-18T10:50:03Z,42.805,6.029,13.3012,4.60027,2470.334,2021-12-18T12:51:32Z
2021-12-18T10:53:06Z,42.805,6.029,13.3006,4.60031,2470.357,2021-12-18T12:54:35Z
2021-12-18T10:56:10Z,42.805,6.029,13.3004,4.60031,2470.32,2021-12-18T12:57:38Z
2021-12-18T10:59:13Z,42.805,6.029,13.3007,4.60031,2470.343,2021-12-18T13:00:41Z
2021-12-18T11:02:16Z,42.805,6.029,13.3010,4.60031,2470.32,2021-12-18T13:03:45Z
2021-12-18T11:05:19Z,42.805,6.029,13.3004,4.60028,2470.32,2021-12-18T13:06:48Z
2021-12-18T11:08:22Z,42.805,6.029,13.3013,4.60032,2470.334,2021-12-18T13:09:51Z
2021-12-18T11:11:25Z,42.805,6.029,13.3008,4.60029,2470.297,2021-12-18T13:12:54Z
2021-12-18T11:14:28Z,42.805,6.029,13.3015,4.60032,2470.334,2021-12-18T13:15:57Z
2021-12-18T11:17:31Z,42.805,6.029,13.3011,4.60030,2470.32,2021-12-18T13:19:00Z
2021-12-18T11:20:35Z,42.805,6.029,13.3012,4.60032,2470.31,2021-12-18T13:22:03Z
2021-12-18T11:23:38Z,42.805,6.029,13.3009,4.60031,2470.334,2021-12-18T13:25:06Z
2021-12-18T11:26:41Z,42.805,6.029,13.3009,4.60027,2470.297,2021-12-18T13:28:10Z
2021-12-18T11:29:44Z,42.805,6.029,13.3008,4.60031,2470.357,2021-12-18T13:31:13Z
2021-12-18T11:32:47Z,42.805,6.029,13.3006,4.60031,2470.32,2021-12-18T13:34:16Z
2021-12-18T11:35:50Z,42.805,6.029,13.3011,4.60029,2470.31,2021-12-18T13:37:19Z
2021-12-18T11:38:53Z,42.805,6.029,13.3006,4.60031,2470.297,2021-12-18T13:40:22Z
2021-12-18T11:41:56Z,42.805,6.029,13.3011,4.60031,2470.31,2021-12-18T13:43:25Z
2021-12-18T11:45:00Z,42.805,6.029,13.3012,4.60029,2470.32,2021-12-18T13:46:28Z
2021-12-18T11:48:03Z,42.805,6.029,13.3011,4.60028,2470.334,2021-12-18T13:49:31Z
2021-12-18T11:51:06Z,42.805,6.029,13.3005,4.60029,2470.297,2021-12-18T13:52:35Z
2021-12-18T11:54:09Z,42.805,6.029,13.3011,4.60035,2470.32,2021-12-18T13:55:38Z
2021-12-18T11:57:12Z,42.805,6.029,13.3014,4.60029,2470.297,2021-12-18T13:58:41Z
2021-12-18T12:00:15Z,42.805,6.029,13.3009,4.60029,2470.287,2021-12-18T14:01:44Z
2021-12-18T12:03:18Z,42.805,6.029,13.3011,4.60031,2470.31,2021-12-18T14:04:47Z
2021-12-18T12:06:22Z,42.805,6.029,13.3006,4.60026,2470.297,2021-12-18T14:07:50Z
2021-12-18T12:09:25Z,42.805,6.029,13.3010,4.60032,2470.287,2021-12-18T14:10:53Z
2021-12-18T12:12:28Z,42.805,6.029,13.3009,4.60026,2470.264,2021-12-18T14:13:57Z
2021-12-18T12:15:31Z,42.805,6.029,13.3014,4.60033,2470.297,2021-12-18T14:17:00Z
2021-12-18T12:18:34Z,42.805,6.029,13.3010,4.60025,2470.273,2021-12-18T14:20:03Z
2021-12-18T12:21:37Z,42.805,6.029,13.3009,4.60033,2470.273,2021-12-18T14:23:06Z
2021-12-18T12:24:40Z,42.805,6.029,13.3008,4.60026,2470.264,2021-12-18T14:26:09Z
2021-12-18T12:27:43Z,42.805,6.029,13.3008,4.60027,2470.273,2021-12-18T14:29:12Z
2021-12-18T12:30:47Z,42.805,6.029,13.3009,4.60028,2470.273,2021-12-18T14:32:15Z
2021-12-18T12:33:50Z,42.805,6.029,13.3004,4.60031,2470.273,2021-12-18T14:35:18Z
2021-12-18T12:36:53Z,42.805,6.029,13.3010,4.60030,2470.273,2021-12-18T14:38:22Z
2021-12-18T12:39:56Z,42.805,6.029,13.3013,4.60028,2470.273,2021-12-18T14:41:25Z
2021-12-18T12:42:59Z,42.805,6.029,13.3014,4.60031,2470.273,2021-12-18T14:44:28Z
2021-12-18T12:46:02Z,42.805,6.029,13.3014,4.60028,2470.273,2021-12-18T14:47:31Z
2021-12-18T12:49:05Z,42.805,6.029,13.3012,4.60032,2470.287,2021-12-18T14:50:34Z
2021-12-18T12:52:08Z,42.805,6.029,13.3010,4.60029,2470.227,2021-12-18T14:53:37Z
2021-12-18T12:55:12Z,42.805,6.029,13.3011,4.60033,2470.264,2021-12-18T14:56:40Z
2021-12-18T12:58:15Z,42.805,6.029,13.3006,4.60030,2470.25,2021-12-18T14:59:43Z
2021-12-18T13:01:18Z,42.805,6.029,13.3014,4.60032,2470.24,2021-12-18T15:02:47Z
2021-12-18T13:04:21Z,42.805,6.029,13.3007,4.60041,2470.273,2021-12-18T15:05:50Z
2021-12-18T13:07:24Z,42.805,6.029,13.3014,4.60027,2470.25,2021-12-18T15:08:53Z
2021-12-18T13:10:27Z,42.805,6.029,13.3012,4.60031,2470.25,2021-12-18T15:11:56Z
2021-12-18T13:13:30Z,42.805,6.029,13.3014,4.60033,2470.287,2021-12-18T15:14:59Z
2021-12-18T13:16:33Z,42.805,6.029,13.3009,4.60029,2470.25,2021-12-18T15:18:02Z
2021-12-18T13:19:37Z,42.805,6.029,13.3008,4.60029,2470.227,2021-12-18T15:21:05Z
2021-12-18T13:22:40Z,42.805,6.029,13.3011,4.60026,2470.264,2021-12-18T15:24:08Z
2021-12-18T13:25:43Z,42.805,6.029,13.3009,4.60028,2470.287,2021-12-18T15:27:12Z
2021-12-18T13:28:46Z,42.805,6.029,13.3006,4.60026,2470.264,2021-12-18T15:30:15Z
2021-12-18T13:31:49Z,42.805,6.029,13.3007,4.60024,2470.264,2021-12-18T15:33:18Z
2021-12-18T13:34:52Z,42.805,6.029,13.3007,4.60031,2470.24,2021-12-18T15:36:21Z
2021-12-18T13:37:55Z,42.805,6.029,13.3003,4.60025,2470.264,2021-12-18T15:39:24Z
2021-12-18T13:40:58Z,42.805,6.029,13.3009,4.60028,2470.273,2021-12-18T15:42:27Z
2021-12-18T13:44:02Z,42.805,6.029,13.3004,4.60026,2470.264,2021-12-18T15:45:30Z
2021-12-18T13:47:05Z,42.805,6.029,13.3009,4.60029,2470.25,2021-12-18T15:48:33Z
2021-12-18T13:50:08Z,42.805,6.029,13.3012,4.60034,2470.25,2021-12-18T15:51:37Z
2021-12-18T13:53:11Z,42.805,6.029,13.3006,4.60029,2470.264,2021-12-18T15:54:40Z
2021-12-18T13:56:14Z,42.805,6.029,13.3009,4.60033,2470.227,2021-12-18T15:57:43Z
2021-12-18T13:59:17Z,42.805,6.029,13.3010,4.60031,2470.227,2021-12-18T16:00:46Z
2021-12-18T14:02:20Z,42.805,6.029,13.3014,4.60028,2470.227,2021-12-18T16:03:49Z
2021-12-18T14:05:24Z,42.805,6.029,13.3014,4.60033,2470.264,2021-12-18T16:06:52Z
2021-12-18T14:08:27Z,42.805,6.029,13.3013,4.60029,2470.264,2021-12-18T16:09:55Z
2021-12-18T14:11:30Z,42.805,6.029,13.3009,4.60029,2470.25,2021-12-18T16:12:58Z
2021-12-18T14:14:33Z,42.805,6.029,13.3014,4.60031,2470.264,2021-12-18T16:16:02Z
2021-12-18T14:17:36Z,42.805,6.029,13.3010,4.60027,2470.264,2021-12-18T16:19:05Z
2021-12-18T14:20:39Z,42.805,6.029,13.3000,4.60031,2470.25,2021-12-18T16:22:08Z
2021-12-18T14:23:42Z,42.805,6.029,13.3014,4.60032,2470.24,2021-12-18T16:25:11Z
2021-12-18T14:26:45Z,42.805,6.029,13.3006,4.60031,2470.25,2021-12-18T16:28:14Z
2021-12-18T14:29:49Z,42.805,6.029,13.3009,4.60031,2470.227,2021-12-18T16:31:17Z
2021-12-18T14:32:52Z,42.805,6.029,13.3011,4.60029,2470.227,2021-12-18T16:34:20Z
2021-12-18T14:35:55Z,42.805,6.029,13.3015,4.60029,2470.287,2021-12-18T16:37:24Z
2021-12-18T14:38:58Z,42.805,6.029,13.3010,4.60032,2470.25,2021-12-18T16:40:27Z
2021-12-18T14:42:01Z,42.805,6.029,13.3011,4.60032,2470.236,2021-12-18T16:43:30Z
2021-12-18T14:45:04Z,42.805,6.029,13.3008,4.60029,2470.24,2021-12-18T16:46:33Z
2021-12-18T14:48:07Z,42.805,6.029,13.3006,4.60030,2470.24,2021-12-18T16:49:36Z
2021-12-18T14:51:10Z,42.805,6.029,13.3012,4.60026,2470.273,2021-12-18T16:52:39Z
2021-12-18T14:54:14Z,42.805,6.029,13.3015,4.60027,2470.25,2021-12-18T16:55:42Z
2021-12-18T14:57:17Z,42.805,6.029,13.3016,4.60035,2470.264,2021-12-18T16:58:45Z
2021-12-18T15:00:20Z,42.805,6.029,13.3007,4.60030,2470.25,2021-12-18T17:01:49Z
2021-12-18T15:03:23Z,42.805,6.029,13.3011,4.60030,2470.264,2021-12-18T17:04:52Z